Location: Assche-ter-Heiden
(50.9174°N, 4.1574°E)
Time: 12:42:30
(UTC+00:00)

USA 215 - Pass Details

Date: 20 January 2020
Orbit: 1101 x 1107 km, 123.0° (Epoch: 06 February)

Event Time Altitude Azimuth Distance (km) Brightness Sun altitude
Rises 04:13:45 0° 127° (SE) 3,914 6.8 -31.3°
Reaches altitude 10° 04:16:14 10° 129° (SE) 2,958 6.0 -30.9°
Enters shadow 04:22:45 73° 213° (SSW) 1,150 3.1 -29.9°
